Fosston, MN

10:58 AM CDT on July 28, 2017 (GMT -0500)
Fosston Municipal

Weather History for KFSE - April, 2014

Change the Weather History Date:

Saturday, April 12, 2014

  Actual Average Record
Temperature  
Mean Temperature 43 °F -  
Max Temperature 53 °F 49 °F 78 °F (1968)
Min Temperature 32 °F 27 °F 0 °F (1950)
Degree Days  
Heating Degree Days 22    
Moisture  
Dew Point 34 °F    
Average Humidity 77    
Maximum Humidity 93    
Minimum Humidity 62    
Precipitation  
Precipitation 0.00 in - - ()
Sea Level Pressure  
Sea Level Pressure 29.81 in    
Wind  
Wind Speed 9 mph (ESE)    
Max Wind Speed 16 mph    
Max Gust Speed 29 mph    
Visibility 10 miles    
Events Rain , Snow    
Averages and records for this station are not official NWS values.
T = Trace of Precipitation, MM = Missing Value Source: NWS Daily Summary

Daily Weather History Graph

Daily Weather History Graph

Search for Another Location

Airport or City:

Trip Planner

Search our weather history database for the weather conditions in past years. The results will help you decide how hot, cold, wet, or windy it might be!

Date:

Astronomy

Apr. 12, 2014 Rise Set
Actual Time 6:39 AM CDT 8:08 PM CDT
Civil Twilight 6:07 AM CDT 8:40 PM CDT
Nautical Twilight 5:29 AM CDT 9:19 PM CDT
Astronomical Twilight 4:47 AM CDT 10:01 PM CDT
Moon 5:38 PM CDT (4/12) 5:18 AM CDT (4/12)
Length of Visible Light 14h 32m
Length of Day
13h 28m
Waxing Gibbous, 93% of the Moon is Illuminated
Apr 12
Waxing Gibbous
Apr 15
Full
Apr 22
Last Quarter
Apr 29
New
May 6
First Quarter

Hourly Weather History & Observations

Time (CDT) Temp. Windchill Dew Point Humidity Pressure Visibility Wind Dir Wind Speed Gust Speed Precip Events Conditions
12:15 AM 35.6 °F 29.2 °F 26.6 °F 70% 29.95 in 10.0 mi East 8.1 mph - N/A   Clear
12:35 AM 35.6 °F 29.2 °F 26.6 °F 70% 29.94 in 10.0 mi East 8.1 mph - N/A   Clear
12:55 AM 35.6 °F 28.6 °F 26.6 °F 70% 29.94 in 10.0 mi East 9.2 mph - N/A   Clear
1:15 AM 35.6 °F 29.2 °F 24.8 °F 65% 29.94 in 10.0 mi East 8.1 mph - N/A   Scattered Clouds
1:35 AM 35.6 °F 28.6 °F 26.6 °F 70% 29.93 in 10.0 mi East 9.2 mph - N/A   Mostly Cloudy
1:55 AM 35.6 °F 28.6 °F 26.6 °F 70% 29.93 in 10.0 mi East 9.2 mph 16.1 mph N/A   Mostly Cloudy
2:15 AM 35.6 °F 28.6 °F 26.6 °F 70% 29.92 in 10.0 mi East 9.2 mph - N/A   Overcast
2:34 AM 35.6 °F 29.2 °F 26.6 °F 70% 29.91 in 10.0 mi ENE 8.1 mph - N/A   Overcast
2:55 AM 35.6 °F 28.6 °F 24.8 °F 65% 29.90 in 10.0 mi ENE 9.2 mph - N/A   Overcast
3:15 AM 35.6 °F 28.6 °F 24.8 °F 65% 29.91 in 10.0 mi East 9.2 mph - N/A   Overcast
3:35 AM 35.6 °F 31.7 °F 24.8 °F 65% 29.92 in 10.0 mi ESE 4.6 mph - N/A   Overcast
3:55 AM 35.6 °F 29.2 °F 26.6 °F 70% 29.92 in 10.0 mi ESE 8.1 mph - N/A   Overcast
4:15 AM 37.4 °F 30.8 °F 26.6 °F 65% 29.91 in 10.0 mi SE 9.2 mph - N/A Snow Light Snow
4:35 AM 35.6 °F 27.5 °F 26.6 °F 70% 29.91 in 10.0 mi SE 11.5 mph 19.6 mph N/A   Light Drizzle
4:55 AM 35.6 °F 29.2 °F 26.6 °F 70% 29.90 in 10.0 mi SE 8.1 mph - N/A Rain Light Rain
5:15 AM 35.6 °F 29.2 °F 28.4 °F 75% 29.88 in 10.0 mi ESE 8.1 mph - N/A   Drizzle
5:35 AM 33.8 °F 25.8 °F 28.4 °F 81% 29.87 in 10.0 mi ESE 10.4 mph - N/A Rain Light Rain
5:55 AM 33.8 °F 27.0 °F 30.2 °F 87% 29.86 in 10.0 mi East 8.1 mph - N/A   Overcast
6:15 AM 33.8 °F 25.8 °F 30.2 °F 87% 29.85 in 10.0 mi ESE 10.4 mph 16.1 mph N/A   Overcast
6:35 AM 33.8 °F 25.3 °F 30.2 °F 87% 29.84 in 10.0 mi ESE 11.5 mph 16.1 mph N/A   Mostly Cloudy
6:55 AM 33.8 °F 25.8 °F 30.2 °F 87% 29.83 in 10.0 mi East 10.4 mph - N/A   Overcast
7:15 AM 33.8 °F 25.8 °F 30.2 °F 87% 29.82 in 10.0 mi East 10.4 mph - N/A   Overcast
7:35 AM 35.6 °F 28.6 °F 32.0 °F 87% 29.82 in 10.0 mi ESE 9.2 mph - N/A   Overcast
7:55 AM 35.6 °F 28.0 °F 32.0 °F 87% 29.82 in 10.0 mi ESE 10.4 mph - N/A   Overcast
8:15 AM 35.6 °F 29.2 °F 32.0 °F 87% 29.82 in 10.0 mi ESE 8.1 mph - N/A   Mostly Cloudy
8:35 AM 37.4 °F 30.8 °F 33.8 °F 87% 29.82 in 10.0 mi ESE 9.2 mph - N/A   Overcast
8:55 AM 37.4 °F 31.4 °F 33.8 °F 87% 29.81 in 10.0 mi ESE 8.1 mph - N/A   Overcast
9:15 AM 37.4 °F 32.1 °F 35.6 °F 93% 29.81 in 10.0 mi East 6.9 mph - N/A   Mostly Cloudy
9:36 AM 39.2 °F 33.6 °F 37.4 °F 93% 29.80 in 10.0 mi East 8.1 mph - N/A   Mostly Cloudy
9:55 AM 39.2 °F 32.5 °F 35.6 °F 87% 29.78 in 10.0 mi East 10.4 mph 16.1 mph N/A   Mostly Cloudy
10:15 AM 42.8 °F 36.2 °F 37.4 °F 81% 29.79 in 10.0 mi East 12.7 mph 17.3 mph N/A   Scattered Clouds
10:35 AM 44.6 °F 38.8 °F 37.4 °F 76% 29.79 in 10.0 mi ESE 11.5 mph 24.2 mph N/A   Scattered Clouds
10:55 AM 44.6 °F 37.8 °F 37.4 °F 76% 29.79 in 10.0 mi SE 15.0 mph - N/A   Mostly Cloudy
11:15 AM 46.4 °F 40.4 °F 39.2 °F 76% 29.79 in 10.0 mi ESE 13.8 mph 23.0 mph N/A   Overcast
11:35 AM 44.6 °F 38.1 °F 39.2 °F 81% 29.78 in 10.0 mi ESE 13.8 mph 21.9 mph N/A   Mostly Cloudy
11:55 AM 48.2 °F - 39.2 °F 71% 29.78 in 10.0 mi ESE 15.0 mph 20.7 mph N/A   Scattered Clouds
12:15 PM 48.2 °F - 39.2 °F 71% 29.77 in 10.0 mi SE 16.1 mph 28.8 mph N/A   Scattered Clouds
12:35 PM 48.2 °F - 39.2 °F 71% 29.77 in 10.0 mi SE 12.7 mph 23.0 mph N/A   Mostly Cloudy
12:55 PM 48.2 °F - 39.2 °F 71% 29.76 in 10.0 mi SSE 13.8 mph 20.7 mph N/A   Mostly Cloudy
1:15 PM 48.2 °F - 39.2 °F 71% 29.77 in 10.0 mi SE 9.2 mph 17.3 mph N/A   Mostly Cloudy
1:35 PM 50.0 °F - 39.2 °F 66% 29.76 in 10.0 mi SE 9.2 mph 17.3 mph N/A   Mostly Cloudy
1:55 PM 51.8 °F - 41.0 °F 67% 29.76 in 10.0 mi SE 8.1 mph - N/A   Mostly Cloudy
2:15 PM 51.8 °F - 41.0 °F 67% 29.75 in 10.0 mi SE 6.9 mph - N/A   Overcast
2:35 PM 51.8 °F - 41.0 °F 67% 29.73 in 10.0 mi ESE 10.4 mph 16.1 mph N/A   Mostly Cloudy
2:55 PM 53.6 °F - 42.8 °F 67% 29.73 in 10.0 mi ESE 10.4 mph - N/A   Mostly Cloudy
3:15 PM 53.6 °F - 41.0 °F 62% 29.72 in 10.0 mi ESE 12.7 mph 18.4 mph N/A   Mostly Cloudy
3:35 PM 51.8 °F - 39.2 °F 62% 29.74 in 10.0 mi ESE 9.2 mph - N/A   Mostly Cloudy
3:55 PM 51.8 °F - 39.2 °F 62% 29.73 in 10.0 mi SE 8.1 mph - N/A Rain Light Rain
4:15 PM 50.0 °F - 39.2 °F 66% 29.73 in 10.0 mi ESE 6.9 mph - N/A   Overcast
4:35 PM 50.0 °F - 39.2 °F 66% 29.74 in 10.0 mi ESE 5.8 mph - N/A Rain Light Rain
4:55 PM 50.0 °F - 39.2 °F 66% 29.74 in 10.0 mi SE 5.8 mph - N/A Rain Light Rain
5:16 PM 48.2 °F - 39.2 °F 71% 29.73 in 10.0 mi SSE 9.2 mph - N/A   Overcast
5:35 PM 48.2 °F - 39.2 °F 71% 29.73 in 10.0 mi ESE 5.8 mph - N/A   Overcast
5:55 PM 50.0 °F - 39.2 °F 66% 29.73 in 10.0 mi SE 9.2 mph - N/A   Overcast
6:16 PM 48.2 °F - 37.4 °F 66% 29.74 in 10.0 mi SE 6.9 mph - N/A   Overcast
6:35 PM 46.4 °F 42.4 °F 37.4 °F 71% 29.74 in 10.0 mi ESE 8.1 mph - N/A   Overcast
6:55 PM 46.4 °F 42.4 °F 37.4 °F 71% 29.74 in 10.0 mi SE 8.1 mph - N/A   Drizzle
7:16 PM 46.4 °F 42.4 °F 39.2 °F 76% 29.73 in 10.0 mi SE 8.1 mph - N/A   Overcast
7:35 PM 46.4 °F 42.4 °F 39.2 °F 76% 29.74 in 10.0 mi SE 8.1 mph - N/A   Overcast
7:55 PM 44.6 °F 42.2 °F 39.2 °F 81% 29.75 in 10.0 mi South 4.6 mph - N/A Rain Light Rain
8:16 PM 44.6 °F - 39.2 °F 81% 29.76 in 10.0 mi Calm Calm - N/A   Overcast
8:35 PM 42.8 °F - 39.2 °F 87% 29.77 in 10.0 mi Calm Calm - N/A   Overcast
8:55 PM 42.8 °F - 39.2 °F 87% 29.77 in 10.0 mi Calm Calm - N/A   Overcast
9:16 PM 42.8 °F 37.0 °F 39.2 °F 87% 29.80 in 10.0 mi WNW 10.4 mph - N/A   Light Drizzle
9:35 PM 39.2 °F 30.5 °F 37.4 °F 93% 29.81 in 10.0 mi WNW 16.1 mph 20.7 mph N/A   Light Drizzle
9:55 PM 39.2 °F 32.5 °F 37.4 °F 93% 29.82 in 10.0 mi NW 10.4 mph 17.3 mph N/A   Overcast
10:16 PM 37.4 °F 28.5 °F 35.6 °F 93% 29.82 in 7.0 mi NW 15.0 mph - N/A   Overcast
10:35 PM 35.6 °F 26.6 °F 33.8 °F 93% 29.83 in 10.0 mi NW 13.8 mph - N/A   Overcast
10:55 PM 35.6 °F 26.6 °F 33.8 °F 93% 29.84 in 10.0 mi NW 13.8 mph 18.4 mph N/A   Overcast
11:16 PM 33.8 °F 25.3 °F 32.0 °F 93% 29.84 in 10.0 mi WNW 11.5 mph - N/A   Overcast
11:35 PM 33.8 °F 23.9 °F 32.0 °F 93% 29.84 in 7.0 mi NW 15.0 mph 18.4 mph N/A   Overcast
11:55 PM 32.0 °F 21.6 °F 30.2 °F 93% 29.85 in 10.0 mi NW 15.0 mph 20.7 mph N/A   Overcast